Find Starlink 5492

NORAD ID: 55331 Int'l Des: 2023-013 Owner: SPXS Country: US Constellation: starlink operational
LEOCIRCULAR

当前视图

正在加载3D地球...

About Starlink 5492

Starlink 5492 (NORAD 55331) is a starlink constellation satellite (v1.5) launched Jan 26, 2023 by SPXS of US. It operates in LEO, CIRCULAR orbit with a mass of 305.00 kg.

关于 Starlink 5492

正在加载描述...

即将过境

Passes for default location (London). Set your location on the main map for personalized predictions.

高度历史

Loading altitude history...

两行轨道根数

1 55331U 23013A 26169.19638149 .00001237 00000-0 54468-4 0 9995
2 55331 43.0054 95.8879 0001763 263.6865 96.3786 15.27582252188122
Epoch: Jun 18, 2026 • Age: 14 hours

当前状态

高度 482.8 km
速度 7.63 km/s
星下点 0.71°N, 96.32°W
发射日期 Jan 26, 2023
运行时间 3.3 years
类型 internet

技术详情

分类 Payload
质量 305.00 kg
干质量 290.00 kg
总质量 305.00 kg
长度 0.20 m
直径 2.80 m
跨度 9.00 m
形状 Box + pan
制造商 SPXS
平台类型 Starlink
阶段状态 In Orbit
所有者/国家 SPXS/US

Most Searched